Location: ??????
(55.4348°N, 39.2112°E)
Time: 19:21:23
(UTC+00:00)

Cosmos 1733 - Pass Details

Date: 14 April 2024
Orbit: 458 x 471 km, 82.5° (Epoch: 18 May)

Event Time Altitude Azimuth Distance (km) Brightness Sun altitude
Rises 00:11:50 0° 349° (N) 2,563 7.3 -16.2°
Reaches altitude 10° 00:13:58 10° 351° (N) 1,677 6.3 -16.0°
Maximum altitude 00:17:37 72° 76° (ENE) 514 3.3 -15.6°
Drops below altitude 10° 00:21:15 10° 162° (SSE) 1,657 5.5 -15.3°
Enters shadow 00:21:30 - 162° (SSE) 1,765 5.6 -15.2°
